[Iaude] MPEC D34: 2024 CP8 [a=1.32,e=0.08,i=17.1,H=22.6]

mpec at cfa.harvard.edu mpec at cfa.harvard.edu
Sat Feb 17 05:37:46 EST 2024


M.P.E.C. 2024-D34                             Issued 2024 February 17, 10:36 UT

     The Minor Planet Electronic Circulars contain information on unusual
         minor planets, routine data on comets and natural satellites,
         and occasional editorial announcements.  They are published
    on behalf of Division F of the International Astronomical Union by the
          Minor Planet Center, Smithsonian Astrophysical Observatory,
                          Cambridge, MA 02138, U.S.A.
			  
             Prepared using the Tamkin Foundation Computer Network

                              MPC at CFA.HARVARD.EDU
            URL https://www.minorplanetcenter.net/    ISSN 1523-6714

                                    2024 CP8                                    


Observations:
     K24C08P* C2024 02 14.46048112 46 36.505+33 18 34.20         21.79wXED034F52
     K24C08P  C2024 02 14.47153812 46 37.511+33 19 10.64         21.58wXED034F52
     K24C08P  C2024 02 14.48261712 46 38.511+33 19 46.68         22.12wXED034F52
     K24C08P  C2024 02 14.58960112 46 47.980+33 25 30.46         21.61GVED034F51
     K24C08P  C2024 02 14.59024712 46 48.024+33 25 33.18         21.82GVED034F51
     K24C08P KC2024 02 16.37040012 49 44.332+34 59 31.27         21.75GVED034V06
     K24C08P KC2024 02 16.37393012 49 44.623+34 59 42.43         21.92GVED034V06
     K24C08P KC2024 02 16.37745812 49 44.926+34 59 53.59         21.64GVED034V06
     K24C08P KC2024 02 16.38098912 49 45.210+35 00 04.75         21.73GVED034V06
     K24C08P  C2024 02 17.40615212 51 20.766+35 53 27.71         21.4 GVED034H01
     K24C08P  C2024 02 17.40945812 51 21.022+35 53 37.89         21.4 GVED034H01
     K24C08P  C2024 02 17.41981312 51 21.840+35 54 10.19         21.7 GVED034H01
     K24C08P  C2024 02 17.42704812 51 22.416+35 54 32.59         21.7 GVED034H01

Observer details:
F51 Pan-STARRS 1, Haleakala.  Observers J. Herman, T. Lowe, P. Minguez, A.
    Schultz, I. Smith.  Measurers K. Chambers, T. de Boer, J. Fairlamb, H.
    Gao, M. Huber, C.-C. Lin, E. Magnier, Y. Ramanjooloo, R. Wainscoat, R.
    Weryk.  1.8-m Ritchey-Chretien + CCD.
F52 Pan-STARRS 2, Haleakala.  Observers J. Herman, T. Lowe, P. Minguez, A.
    Schultz, I. Smith.  Measurers K. Chambers, T. de Boer, J. Fairlamb, H.
    Gao, M. Huber, C.-C. Lin, E. Magnier, Y. Ramanjooloo, R. Wainscoat, R.
    Weryk.  1.8-m Ritchey-Chretien + CCD.
H01 Magdalena Ridge Observatory, Socorro.  Observers W. H. Ryan, E. V. Ryan.
    Measurer W. H. Ryan.  2.4-m f/8.9 Ritchey-Chretien + CCD.
V06 Catalina Sky Survey-Kuiper.  Observer J. B. Fazekas.  Measurers T. Beuden,
    V. F. Carvajal, D. Fay, J. B. Fazekas, D. C. Fuls, A. R. Gibbs, A. D.
    Grauer, H. Groeller, J. K. Hogan, R. A. Kowalski, S. M. Larson, G. J.
    Leonard, D. Rankin, R. L. Seaman, F. C. Shelly, K. W. Wierzchos.  1.55-m
    reflector + 1K CCD.

Orbital elements:
2024 CP8                                                 Earth MOID = 0.2375 AU
Epoch 2024 Mar. 31.0 TT = JDT 2460400.5                 MPC                     
M  41.50815              (2000.0)            P               Q                  
n   0.64707530     Peri.   14.86795     -0.73258499     -0.63463643             
a   1.3238319      Node   123.03937     +0.59071071     -0.77238567             
e   0.0791307      Incl.   17.07055     +0.33820125     -0.02563157             
P   1.52           H   22.63          G   0.15           U   9                  
Residuals in seconds of arc
240214 F52  0.0   0.4-    240216 V06  0.0   0.1+    240217 H01  0.0   0.0
240214 F52  0.0   0.0     240216 V06  0.0   0.0     240217 H01  0.0   0.0
240214 F52  0.0   0.1+    240216 V06  0.1+  0.0     240217 H01  0.0   0.0
240214 F51  0.1+  0.3-    240216 V06  0.1-  0.1-
240214 F51  0.1-  0.4+    240217 H01  0.1+  0.1+

Ephemeris:
2024 CP8                 a,e,i = 1.32, 0.08, 17                  q = 1.2191
Date    TT    R. A. (2000) Decl.     Delta      r    Elong.  Phase     V
2024 01 18    11 45 36.6 +10 28 57   0.3561  1.2197   124.1    41.9    22.5
...
2024 02 02    12 21 48.1 +22 06 31   0.3149  1.2194   132.2    36.8    22.0
...
2024 02 10    12 38 30.5 +29 17 27   0.3057  1.2206   134.5    35.2    21.9
...
2024 02 16    12 49 07.9 +34 40 02   0.3049  1.2222   134.9    34.9    21.9
2024 02 17    12 50 42.8 +35 32 20   0.3052  1.2226   134.9    34.9    21.9
2024 02 18    12 52 14.4 +36 24 01   0.3057  1.2229   134.8    35.0    21.9
...
2024 02 24    13 00 05.8 +41 17 42   0.3111  1.2252   133.7    35.7    22.0
...
2024 03 03    13 06 44.1 +46 52 03   0.3243  1.2291   131.1    37.4    22.1
...
2024 03 18    13 06 50.5 +53 39 19   0.3616  1.2388   125.0    41.1    22.5

A. U. Tomatic                (C) Copyright 2024 MPC           M.P.E.C. 2024-D34





More information about the Iaude mailing list